Beaver Falls, PA

12:13 AM EST on November 19, 2019 (GMT -0500)
Beaver County

Weather History for KBVI - September, 2019

Change the Weather History Date:

Wednesday, September 4, 2019

  Actual Average Record
Temperature  
Mean Temperature 69 °F -  
Max Temperature 80 °F 76 °F 91 °F (2018)
Min Temperature 58 °F 58 °F 44 °F (1997)
Cooling Degree Days 4    
Growing Degree Days 19 (Base 50)    
Moisture  
Dew Point 60 °F    
Average Humidity 69    
Maximum Humidity 88    
Minimum Humidity 46    
Precipitation  
Precipitation 0.00 in - - ()
Sea Level Pressure  
Sea Level Pressure 30.00 in    
Wind  
Wind Speed 8 mph (West)    
Max Wind Speed 12 mph    
Max Gust Speed 18 mph    
Visibility 10 miles    
Events      
Averages and records for this station are not official NWS values.
T = Trace of Precipitation, MM = Missing Value Source: NWS Daily Summary

Daily Weather History Graph

Daily Weather History Graph

Search for Another Location

Airport or City:

Astronomy

Sep. 04, 2019 Rise Set
Actual Time 6:51 AM EDT 7:49 PM EDT
Civil Twilight 6:23 AM EDT 8:17 PM EDT
Nautical Twilight 5:49 AM EDT 8:50 PM EDT
Astronomical Twilight 5:15 AM EDT 9:24 PM EDT
Moon 12:52 PM EDT (9/4) 11:20 PM EDT (9/4)
Length of Visible Light 13h 53m
Length of Day
12h 58m
Waxing Crescent, 34% of the Moon is Illuminated
Sep 4
Waxing Crescent
Sep 5
First Quarter
Sep 14
Full
Sep 21
Last Quarter
Sep 28
New

Hourly Weather History & Observations

Time (EDT) Temp. Heat Index Dew Point Humidity Pressure Visibility Wind Dir Wind Speed Gust Speed Precip Events Conditions
12:15 AM 70.0 °F - 62.6 °F 77% 29.94 in 10.0 mi South 8.1 mph - N/A   Mostly Cloudy
12:16 AM 70.2 °F - 62.6 °F 77% 29.94 in 10.0 mi South 6.9 mph - N/A   Mostly Cloudy
12:35 AM 70.3 °F - 62.8 °F 77% 29.94 in 10.0 mi SW 8.1 mph - N/A   Overcast
12:36 AM 70.5 °F - 62.8 °F 76% 29.94 in 10.0 mi SW 8.1 mph - N/A   Overcast
12:55 AM 70.0 °F - 62.6 °F 77% 29.93 in 10.0 mi SSW 8.1 mph - N/A   Scattered Clouds
1:15 AM 70.0 °F - 62.8 °F 78% 29.93 in 10.0 mi SSW 5.8 mph - N/A   Mostly Cloudy
1:35 AM 70.9 °F - 63.1 °F 76% 29.93 in 10.0 mi SSW 8.1 mph - N/A   Mostly Cloudy
1:36 AM 70.9 °F - 63.1 °F 76% 29.93 in 10.0 mi SSW 6.9 mph - N/A   Scattered Clouds
1:55 AM 70.5 °F - 63.0 °F 77% 29.93 in 10.0 mi South 6.9 mph - N/A   Scattered Clouds
2:15 AM 70.0 °F - 63.0 °F 78% 29.93 in 10.0 mi South 6.9 mph - N/A   Scattered Clouds
2:35 AM 70.7 °F - 63.5 °F 78% 29.93 in 10.0 mi SSW 8.1 mph - N/A   Mostly Cloudy
2:55 AM 70.7 °F - 63.5 °F 78% 29.92 in 10.0 mi SSW 10.4 mph - N/A   Mostly Cloudy
2:56 AM 70.7 °F - 63.5 °F 78% 29.92 in 10.0 mi SSW 9.2 mph - N/A   Mostly Cloudy
3:15 AM 70.3 °F - 63.1 °F 78% 29.92 in 10.0 mi SSW 8.1 mph - N/A   Scattered Clouds
3:35 AM 70.3 °F - 63.1 °F 78% 29.92 in 10.0 mi SSW 9.2 mph - N/A   Clear
3:36 AM 70.3 °F - 63.1 °F 78% 29.91 in 10.0 mi SSW 10.4 mph 16.1 mph N/A   Clear
3:55 AM 69.8 °F - 63.1 °F 79% 29.90 in 10.0 mi SSW 10.4 mph - N/A   Clear
4:15 AM 69.4 °F - 63.0 °F 80% 29.89 in 10.0 mi SSW 8.1 mph - N/A   Clear
4:16 AM 69.4 °F - 63.0 °F 80% 29.89 in 10.0 mi SSW 8.1 mph - N/A   Clear
4:35 AM 69.4 °F - 63.1 °F 80% 29.90 in 10.0 mi SSW 10.4 mph - N/A   Clear
4:55 AM 69.6 °F - 63.5 °F 81% 29.91 in 10.0 mi SW 9.2 mph - N/A   Clear
5:15 AM 69.3 °F - 63.5 °F 82% 29.91 in 10.0 mi SW 9.2 mph - N/A   Clear
5:16 AM 69.3 °F - 63.5 °F 82% 29.91 in 10.0 mi SW 8.1 mph - N/A   Clear
5:35 AM 69.1 °F - 63.5 °F 82% 29.91 in 10.0 mi SSW 9.2 mph - N/A   Scattered Clouds
5:55 AM 68.9 °F - 63.5 °F 83% 29.91 in 10.0 mi SSW 8.1 mph - N/A   Clear
5:56 AM 68.9 °F - 63.7 °F 83% 29.91 in 10.0 mi SSW 8.1 mph - N/A   Clear
6:15 AM 68.9 °F - 63.7 °F 83% 29.92 in 10.0 mi SSW 8.1 mph - N/A   Clear
6:16 AM 68.9 °F - 63.7 °F 83% 29.92 in 10.0 mi SSW 8.1 mph - N/A   Scattered Clouds
6:35 AM 68.9 °F - 63.9 °F 84% 29.93 in 10.0 mi SW 8.1 mph - N/A   Scattered Clouds
6:47 AM 68.0 °F - 64.4 °F 88% 29.93 in 10.0 mi SW 9.2 mph - N/A   Clear
6:55 AM 68.9 °F - 64.0 °F 84% 29.93 in 10.0 mi SW 9.2 mph - N/A   Scattered Clouds
6:56 AM 68.9 °F - 64.0 °F 84% 29.93 in 10.0 mi SW 8.1 mph - N/A   Scattered Clouds
7:15 AM 68.9 °F - 64.2 °F 85% 29.94 in 10.0 mi SW 9.2 mph - N/A   Mostly Cloudy
7:16 AM 68.9 °F - 64.2 °F 85% 29.94 in 10.0 mi SSW 8.1 mph - N/A   Mostly Cloudy
7:35 AM 68.9 °F - 64.4 °F 86% 29.94 in 10.0 mi SSW 6.9 mph - N/A   Scattered Clouds
7:47 AM 69.8 °F - 64.4 °F 83% 29.95 in 10.0 mi SW 8.1 mph - N/A   Scattered Clouds
7:55 AM 70.2 °F - 64.6 °F 82% 29.95 in 10.0 mi SW 6.9 mph - N/A   Scattered Clouds
7:56 AM 70.2 °F - 64.8 °F 83% 29.95 in 10.0 mi SW 8.1 mph - N/A   Scattered Clouds
8:15 AM 71.4 °F - 65.5 °F 81% 29.96 in 10.0 mi SW 8.1 mph - N/A   Mostly Cloudy
8:16 AM 71.6 °F - 65.5 °F 81% 29.96 in 10.0 mi SW 9.2 mph - N/A   Mostly Cloudy
8:35 AM 72.5 °F - 66.0 °F 80% 29.96 in 10.0 mi SW 8.1 mph - N/A   Scattered Clouds
8:47 AM 71.6 °F - 66.2 °F 83% 29.97 in 10.0 mi West 6.9 mph - N/A   Mostly Cloudy
8:55 AM 72.0 °F - 66.0 °F 81% 29.97 in 10.0 mi WSW 6.9 mph - N/A   Overcast
8:56 AM 72.0 °F - 66.2 °F 82% 29.97 in 10.0 mi WSW 8.1 mph - N/A   Overcast
9:15 AM 72.5 °F - 66.2 °F 81% 29.98 in 10.0 mi West 6.9 mph - N/A   Overcast
9:35 AM 73.8 °F - 66.0 °F 77% 29.98 in 10.0 mi West 11.5 mph 17.3 mph N/A   Overcast
9:36 AM 73.9 °F - 66.0 °F 76% 29.98 in 10.0 mi WSW 10.4 mph 17.3 mph N/A   Overcast
9:47 AM 75.2 °F - 66.2 °F 73% 29.98 in 10.0 mi West 9.2 mph - N/A   Mostly Cloudy
9:55 AM 76.1 °F - 65.7 °F 70% 29.98 in 10.0 mi West 6.9 mph - N/A   Mostly Cloudy
10:15 AM 74.3 °F - 65.8 °F 75% 29.99 in 10.0 mi WNW 6.9 mph - N/A   Mostly Cloudy
10:35 AM 77.9 °F - 63.9 °F 62% 29.99 in 10.0 mi West 10.4 mph - N/A   Scattered Clouds
10:47 AM 75.2 °F - 62.6 °F 65% 29.99 in 10.0 mi WNW 8.1 mph - N/A   Mostly Cloudy
10:55 AM 74.5 °F - 63.9 °F 69% 29.99 in 10.0 mi WNW 6.9 mph - N/A   Mostly Cloudy
10:56 AM 74.8 °F - 63.9 °F 69% 30.00 in 10.0 mi NW 8.1 mph - N/A   Mostly Cloudy
11:15 AM 76.5 °F - 61.0 °F 59% 30.00 in 10.0 mi West 9.2 mph 18.4 mph N/A   Mostly Cloudy
11:16 AM 76.6 °F - 61.0 °F 58% 30.00 in 10.0 mi West 10.4 mph 18.4 mph N/A   Mostly Cloudy
11:35 AM 79.5 °F - 61.3 °F 54% 30.00 in 10.0 mi WNW 6.9 mph - N/A   Mostly Cloudy
11:36 AM 79.3 °F - 61.2 °F 54% 30.00 in 10.0 mi WNW 6.9 mph - N/A   Mostly Cloudy
11:47 AM 77.0 °F - 59.0 °F 54% 30.00 in 10.0 mi NW 9.2 mph - N/A   Mostly Cloudy
11:55 AM 75.0 °F - 59.7 °F 59% 30.01 in 10.0 mi WNW 6.9 mph - N/A   Mostly Cloudy
12:15 PM 78.6 °F - 59.5 °F 52% 30.01 in 10.0 mi NW 6.9 mph - N/A   Scattered Clouds
12:35 PM 80.2 °F 80.7 °F 58.5 °F 47% 30.01 in 10.0 mi West 9.2 mph - N/A   Scattered Clouds
12:47 PM 78.8 °F - 57.2 °F 47% 30.01 in 10.0 mi WNW 9.2 mph - N/A   Scattered Clouds
12:55 PM 78.8 °F - 58.1 °F 49% 30.01 in 10.0 mi WNW 8.1 mph - N/A   Scattered Clouds
1:15 PM 78.4 °F - 57.9 °F 49% 30.01 in 10.0 mi WNW 5.8 mph - N/A   Scattered Clouds
1:35 PM 79.7 °F - 57.6 °F 47% 30.01 in 10.0 mi WNW 5.8 mph - N/A   Scattered Clouds
1:36 PM 79.9 °F - 57.7 °F 47% 30.01 in 10.0 mi West 5.8 mph - N/A   Scattered Clouds
1:47 PM 78.8 °F - 57.2 °F 47% 30.01 in 10.0 mi WNW 11.5 mph 16.1 mph N/A   Scattered Clouds
1:55 PM 80.4 °F 80.8 °F 57.7 °F 46% 30.01 in 10.0 mi NW 8.1 mph 16.1 mph N/A   Scattered Clouds
2:15 PM 80.2 °F 80.8 °F 58.8 °F 48% 30.01 in 10.0 mi NW 10.4 mph 18.4 mph N/A   Scattered Clouds
2:35 PM 80.8 °F 81.1 °F 58.3 °F 46% 30.01 in 10.0 mi NNW 9.2 mph - N/A   Mostly Cloudy
2:47 PM 77.0 °F - 59.0 °F 54% 30.01 in 10.0 mi NNW 8.1 mph - N/A   Mostly Cloudy
2:55 PM 79.0 °F - 58.8 °F 50% 30.01 in 10.0 mi NNW 9.2 mph - N/A   Mostly Cloudy
3:15 PM 78.4 °F - 57.6 °F 49% 30.01 in 10.0 mi NW 5.8 mph - N/A   Scattered Clouds
3:35 PM 80.2 °F 80.7 °F 58.3 °F 47% 30.01 in 10.0 mi WNW 9.2 mph - N/A   Scattered Clouds
3:36 PM 80.4 °F 80.8 °F 58.1 °F 46% 30.01 in 10.0 mi WNW 8.1 mph - N/A   Mostly Cloudy
3:47 PM 78.8 °F - 57.2 °F 47% 30.02 in 10.0 mi NW 9.2 mph - N/A   Mostly Cloudy
3:55 PM 79.3 °F - 57.4 °F 47% 30.02 in 10.0 mi NNW 8.1 mph - N/A   Mostly Cloudy
4:15 PM 78.6 °F - 57.2 °F 48% 30.02 in 10.0 mi NW 8.1 mph - N/A   Scattered Clouds
4:16 PM 78.6 °F - 57.2 °F 48% 30.02 in 10.0 mi NW 8.1 mph - N/A   Scattered Clouds
4:35 PM 78.8 °F - 58.1 °F 49% 30.02 in 10.0 mi NW 6.9 mph - N/A   Scattered Clouds
4:36 PM 79.0 °F - 58.3 °F 49% 30.02 in 10.0 mi NW 6.9 mph - N/A   Scattered Clouds
4:55 PM 77.7 °F - 57.0 °F 49% 30.03 in 10.0 mi NW 9.2 mph 16.1 mph N/A   Scattered Clouds
5:15 PM 77.0 °F - 57.0 °F 50% 30.03 in 10.0 mi NNW 8.1 mph 16.1 mph N/A   Scattered Clouds
5:35 PM 77.0 °F - 56.8 °F 50% 30.04 in 10.0 mi NW 6.9 mph - N/A   Scattered Clouds
5:36 PM 77.0 °F - 56.7 °F 49% 30.04 in 10.0 mi NW 8.1 mph - N/A   Scattered Clouds
5:55 PM 76.1 °F - 56.5 °F 50% 30.04 in 10.0 mi North 10.4 mph - N/A   Clear
5:56 PM 76.1 °F - 56.5 °F 50% 30.04 in 10.0 mi North 10.4 mph - N/A   Clear
6:15 PM 74.8 °F - 56.7 °F 53% 30.05 in 10.0 mi North 9.2 mph - N/A   Clear
6:16 PM 74.7 °F - 56.7 °F 53% 30.05 in 10.0 mi North 9.2 mph - N/A   Clear
6:35 PM 71.8 °F - 58.1 °F 62% 30.06 in 10.0 mi North 8.1 mph - N/A   Scattered Clouds
6:36 PM 71.8 °F - 58.3 °F 62% 30.06 in 10.0 mi North 9.2 mph - N/A   Scattered Clouds
6:55 PM 70.5 °F - 58.5 °F 66% 30.06 in 10.0 mi NNW 9.2 mph - N/A   Clear
7:15 PM 69.1 °F - 58.1 °F 68% 30.07 in 10.0 mi North 9.2 mph - N/A   Clear
7:35 PM 67.5 °F - 57.6 °F 70% 30.08 in 10.0 mi North 6.9 mph - N/A   Clear
7:36 PM 67.3 °F - 57.6 °F 71% 30.08 in 10.0 mi North 8.1 mph - N/A   Clear
7:55 PM 66.2 °F - 56.7 °F 71% 30.09 in 10.0 mi North 6.9 mph - N/A   Clear
8:15 PM 65.3 °F - 56.5 °F 73% 30.09 in 10.0 mi North 10.4 mph - N/A   Clear
8:35 PM 64.4 °F - 55.8 °F 73% 30.09 in 10.0 mi North 8.1 mph - N/A   Clear
8:47 PM 64.4 °F - 55.4 °F 73% 30.09 in 10.0 mi North 8.1 mph - N/A   Clear
8:55 PM 63.5 °F - 55.6 °F 75% 30.10 in 10.0 mi North 6.9 mph - N/A   Clear
9:15 PM 62.8 °F - 55.8 °F 78% 30.10 in 10.0 mi North 8.1 mph - N/A   Clear
9:35 PM 62.2 °F - 55.4 °F 78% 30.11 in 10.0 mi North 6.9 mph - N/A   Clear
9:55 PM 61.3 °F - 54.7 °F 79% 30.11 in 10.0 mi North 6.9 mph - N/A   Clear
10:15 PM 60.8 °F - 54.5 °F 80% 30.11 in 10.0 mi North 4.6 mph - N/A   Clear
10:16 PM 60.8 °F - 54.5 °F 80% 30.11 in 10.0 mi North 5.8 mph - N/A   Clear
10:35 PM 60.4 °F - 54.5 °F 81% 30.11 in 10.0 mi North 6.9 mph - N/A   Clear
10:55 PM 60.3 °F - 54.0 °F 80% 30.11 in 10.0 mi North 5.8 mph - N/A   Clear
11:15 PM 59.2 °F - 54.0 °F 83% 30.12 in 10.0 mi North 3.5 mph - N/A   Clear
11:35 PM 59.0 °F - 54.0 °F 83% 30.12 in 10.0 mi Calm Calm - N/A   Clear
11:36 PM 58.8 °F - 53.8 °F 83% 30.12 in 10.0 mi Calm Calm - N/A   Clear
11:55 PM 58.1 °F - 53.8 °F 86% 30.12 in 10.0 mi North 3.5 mph - N/A   Clear
11:56 PM 58.1 °F - 54.0 °F 86% 30.12 in 10.0 mi North 3.5 mph - N/A   Clear